User: anonymous   Login
Location: Unspecified
(0.0000°N, 0.0000°E)
Time: 17:23:56
(UTC+00:00)
Language:

COSMOS 1867 COOLANT - Orbit

View from above orbital plane
View from above orbital plane
View from above satellite
View from above satellite

Ground track
Ground track

The orbit data is extracted from the following two-line orbital elements,

1 39643U 87060L   21336.74396273  .00000047  00000-0  54514-4 0  9996
2 39643  65.0116 338.1163 0020252 265.0255  94.8517 14.32214649400225
Epoch (UTC): 02 December 2021 17:51:18
Eccentricity: 0.0020252
inclination: 65.0116°
perigee height: 770 km
apogee height: 799 km
right ascension of ascending node: 338.1163°
argument of perigee: 265.0255°
revolutions per day: 14.32214649
mean anomaly at epoch: 94.8517°
orbit number at epoch: 40022

The dashed part of the orbit path shows where the satellite is in the earth's shadow,  

DLR